| time (UTC) | temp F | wind direction | speed knots | gust knots | rain 1hr in | rain 24hr in | rain mn in | humidity % | barometer mb |
| 20260906121247 | 55 | 165 | 0.0 | 0.0 | 0.00 | 0.00 | 0.00 | 74 | 986.0 |
| 20260906120147 | 55 | 207 | 0.0 | 0.0 | 0.00 | 0.00 | 0.00 | 73 | 986.3 |
| 20260906120142 | 55 | 165 | 0.0 | 0.0 | 0.00 | 0.00 | 0.00 | 73 | 986.3 |
| 20260906115142 | 55 | 206 | 0.0 | 0.0 | 0.00 | 0.00 | 0.00 | 73 | 986.1 |
| 20260906114642 | 55 | 207 | 0.0 | 0.0 | 0.00 | 0.00 | 0.00 | 72 | 986.1 |
| 20260906114145 | 55 | 206 | 0.0 | 0.0 | 0.00 | 0.00 | 0.00 | 72 | 986.0 |
| 20260906114140 | 55 | 207 | 0.0 | 0.0 | 0.00 | 0.00 | 0.00 | 72 | 986.0 |
| 20260906113144 | 56 | 206 | 0.0 | 0.0 | 0.00 | 0.00 | 0.00 | 71 | 985.9 |
| 20260906113140 | 56 | 206 | 0.0 | 0.0 | 0.00 | 0.00 | 0.00 | 71 | 986.0 |
| 20260906112139 | 56 | 206 | 0.0 | 0.0 | 0.00 | 0.00 | 0.00 | 70 | 985.9 |
| 20260906111639 | 56 | 206 | 0.0 | 0.0 | 0.00 | 0.00 | 0.00 | 71 | 985.8 |
| 20260906111140 | 56 | 206 | 0.0 | 0.0 | 0.00 | 0.00 | 0.00 | 71 | 985.7 |
| 20260906110638 | 56 | 206 | 0.0 | 0.0 | 0.00 | 0.00 | 0.00 | 71 | 985.8 |
| 20260906110137 | 56 | 206 | 0.0 | 0.0 | 0.00 | 0.00 | 0.00 | 70 | 985.8 |
| 20260906105642 | 58 | 207 | 0.0 | 0.0 | 0.00 | 0.00 | 0.00 | 68 | 985.9 |
| 20260906105638 | 57 | 207 | 0.0 | 0.0 | 0.00 | 0.00 | 0.00 | 69 | 985.9 |
| 20260906104638 | 58 | 207 | 0.0 | 0.0 | 0.00 | 0.00 | 0.00 | 68 | 985.7 |
| 20260906104141 | 57 | 135 | 0.0 | 0.0 | 0.00 | 0.00 | 0.00 | 68 | 985.8 |
| 20260906104137 | 58 | 207 | 0.0 | 0.0 | 0.00 | 0.00 | 0.00 | 68 | 985.7 |
| 20260906103139 | 57 | 214 | 0.0 | 0.0 | 0.00 | 0.00 | 0.00 | 69 | 985.7 |
| 20260906102637 | 57 | 214 | 0.0 | 0.0 | 0.00 | 0.00 | 0.00 | 69 | 985.7 |
| 20260906102138 | 57 | 184 | 0.0 | 0.0 | 0.00 | 0.00 | 0.00 | 69 | 985.9 |
| 20260906101638 | 57 | 148 | 0.0 | 0.0 | 0.00 | 0.00 | 0.00 | 68 | 986.0 |
| 20260906101138 | 58 | 164 | 0.0 | 0.0 | 0.00 | 0.00 | 0.00 | 68 | 986.0 |
| 20260906100637 | 58 | 146 | 0.0 | 0.0 | 0.00 | 0.00 | 0.00 | 68 | 985.9 |
| 20260906100135 | 58 | 147 | 0.0 | 0.0 | 0.00 | 0.00 | 0.00 | 68 | 985.8 |
| 20260906095635 | 58 | 147 | 0.0 | 0.0 | 0.00 | 0.00 | 0.00 | 67 | 985.8 |
| 20260906095136 | 58 | 147 | 0.0 | 0.0 | 0.00 | 0.00 | 0.00 | 67 | 985.7 |
| 20260906094635 | 58 | 147 | 0.0 | 0.0 | 0.00 | 0.00 | 0.00 | 67 | 985.7 |
| 20260906094136 | 59 | 147 | 0.0 | 0.0 | 0.00 | 0.00 | 0.00 | 67 | 985.6 |
| 20260906093635 | 59 | 146 | 0.0 | 0.0 | 0.00 | 0.00 | 0.00 | 66 | 985.7 |
| 20260906093135 | 60 | 145 | 0.0 | 0.0 | 0.00 | 0.00 | 0.00 | 66 | 985.8 |
| 20260906092635 | 60 | 148 | 0.0 | 0.0 | 0.00 | 0.00 | 0.00 | 65 | 985.7 |
| 20260906092136 | 60 | 158 | 0.0 | 0.0 | 0.00 | 0.00 | 0.00 | 64 | 985.8 |
| 20260906091634 | 60 | 142 | 0.0 | 0.0 | 0.00 | 0.00 | 0.00 | 63 | 985.7 |
| 20260906091132 | 60 | 142 | 0.0 | 0.0 | 0.00 | 0.00 | 0.00 | 64 | 985.7 |
| 20260906090634 | 60 | 142 | 0.0 | 0.0 | 0.00 | 0.00 | 0.00 | 65 | 985.6 |
| 20260906090133 | 60 | 142 | 0.0 | 0.0 | 0.00 | 0.00 | 0.00 | 65 | 985.6 |
| 20260906085633 | 60 | 142 | 0.0 | 0.0 | 0.00 | 0.00 | 0.00 | 64 | 985.4 |
| 20260906085133 | 60 | 142 | 0.0 | 0.0 | 0.00 | 0.00 | 0.00 | 64 | 985.4 |
| 20260906084631 | 59 | 142 | 0.0 | 0.0 | 0.00 | 0.00 | 0.00 | 65 | 985.4 |
| 20260906084135 | 59 | 142 | 0.0 | 0.0 | 0.00 | 0.00 | 0.00 | 65 | 985.6 |
| 20260906084131 | 59 | 142 | 0.0 | 0.0 | 0.00 | 0.00 | 0.00 | 65 | 985.4 |
| 20260906083131 | 59 | 142 | 0.0 | 0.0 | 0.00 | 0.00 | 0.00 | 65 | 985.6 |
| 20260906082631 | 60 | 160 | 0.0 | 0.0 | 0.00 | 0.00 | 0.00 | 65 | 985.6 |
| 20260906082129 | 60 | 160 | 0.0 | 0.0 | 0.00 | 0.00 | 0.00 | 64 | 985.7 |
| 20260906081629 | 60 | 159 | 0.0 | 0.0 | 0.00 | 0.00 | 0.00 | 63 | 985.8 |
| 20260906081129 | 60 | 160 | 0.0 | 0.0 | 0.00 | 0.00 | 0.00 | 62 | 985.8 |
| 20260906080629 | 61 | 160 | 0.0 | 0.0 | 0.00 | 0.00 | 0.00 | 62 | 985.8 |
| 20260906080129 | 61 | 156 | 0.0 | 0.0 | 0.00 | 0.00 | 0.00 | 62 | 985.8 |
| 20260906075633 | 61 | 156 | 0.0 | 0.0 | 0.00 | 0.00 | 0.00 | 62 | 985.8 |
| 20260906075628 | 61 | 156 | 0.0 | 0.0 | 0.00 | 0.00 | 0.00 | 62 | 985.8 |
| 20260906074629 | 61 | 156 | 0.0 | 0.0 | 0.00 | 0.00 | 0.00 | 61 | 985.9 |
| 20260906074129 | 62 | 156 | 0.0 | 0.0 | 0.00 | 0.00 | 0.00 | 60 | 985.9 |
| 20260906073628 | 63 | 156 | 0.0 | 0.0 | 0.00 | 0.00 | 0.00 | 58 | 985.9 |
| 20260906073131 | 65 | 156 | 0.0 | 0.0 | 0.00 | 0.00 | 0.00 | 54 | 985.9 |
| 20260906073127 | 64 | 156 | 0.0 | 0.0 | 0.00 | 0.00 | 0.00 | 56 | 985.9 |
| 20260906072131 | 65 | 151 | 0.0 | 0.0 | 0.00 | 0.00 | 0.00 | 55 | 985.8 |
| 20260906072127 | 64 | 151 | 0.0 | 0.0 | 0.00 | 0.00 | 0.00 | 54 | 985.8 |
| 20260906071127 | 65 | 150 | 0.0 | 0.0 | 0.00 | 0.00 | 0.00 | 55 | 985.8 |
| 20260906070626 | 65 | 154 | 0.0 | 0.0 | 0.00 | 0.00 | 0.00 | 55 | 985.7 |
| 20260906070127 | 66 | 158 | 0.0 | 0.0 | 0.00 | 0.00 | 0.00 | 54 | 985.7 |
| 20260906065627 | 67 | 184 | 0.0 | 0.0 | 0.00 | 0.00 | 0.00 | 53 | 985.8 |
| 20260906065126 | 67 | 200 | 0.0 | 0.9 | 0.00 | 0.00 | 0.00 | 52 | 985.7 |
| 20260906064631 | 68 | 238 | 0.0 | 2.6 | 0.00 | 0.00 | 0.00 | 51 | 985.7 |
| 20260906064626 | 68 | 214 | 0.0 | 2.6 | 0.00 | 0.00 | 0.00 | 52 | 985.7 |
| 20260906064125 | 68 | 259 | 0.0 | 2.6 | 0.00 | 0.00 | 0.00 | 51 | 985.7 |
| 20260906063125 | 69 | 207 | 0.0 | 0.9 | 0.00 | 0.00 | 0.00 | 52 | 985.7 |
| 20260906062625 | 69 | 229 | 0.0 | 0.9 | 0.00 | 0.00 | 0.00 | 52 | 985.8 |
| 20260906062125 | 70 | 206 | 0.0 | 1.7 | 0.00 | 0.00 | 0.00 | 52 | 985.8 |
| 20260906061625 | 70 | 246 | 0.0 | 1.7 | 0.00 | 0.00 | 0.00 | 53 | 985.8 |
| 20260906061126 | 70 | 237 | 0.0 | 2.6 | 0.00 | 0.00 | 0.00 | 54 | 985.8 |
| 20260906060627 | 69 | 229 | 0.0 | 0.9 | 0.00 | 0.00 | 0.00 | 62 | 985.8 |
| 20260906060623 | 69 | 236 | 0.0 | 2.6 | 0.00 | 0.00 | 0.00 | 57 | 985.8 |
| 20260906055622 | 68 | 201 | 0.0 | 0.9 | 0.00 | 0.00 | 0.00 | 63 | 985.9 |
| 20260906055123 | 68 | 145 | 0.0 | 0.0 | 0.00 | 0.00 | 0.00 | 64 | 985.9 |
| 20260906054623 | 67 | 151 | 0.0 | 0.0 | 0.00 | 0.00 | 0.00 | 64 | 985.9 |
| 20260906054121 | 67 | 151 | 0.0 | 0.0 | 0.00 | 0.00 | 0.00 | 64 | 985.8 |
| 20260906053620 | 68 | 151 | 0.0 | 0.9 | 0.00 | 0.00 | 0.00 | 63 | 985.8 |
| 20260906053120 | 68 | 150 | 0.0 | 0.9 | 0.00 | 0.00 | 0.00 | 62 | 985.9 |
| 20260906052619 | 68 | 124 | 0.0 | 0.9 | 0.00 | 0.00 | 0.00 | 62 | 985.9 |
| 20260906052119 | 68 | 236 | 0.0 | 0.0 | 0.00 | 0.00 | 0.00 | 62 | 985.8 |
| 20260906051619 | 68 | 236 | 0.0 | 0.0 | 0.00 | 0.00 | 0.00 | 62 | 985.8 |
| 20260906051119 | 68 | 236 | 0.0 | 0.0 | 0.00 | 0.00 | 0.00 | 62 | 985.8 |
| 20260906050620 | 68 | 236 | 0.0 | 0.0 | 0.00 | 0.00 | 0.00 | 62 | 985.9 |
| 20260906050123 | 69 | 236 | 0.0 | 0.0 | 0.00 | 0.00 | 0.00 | 60 | 985.9 |
| 20260906050119 | 69 | 236 | 0.0 | 0.0 | 0.00 | 0.00 | 0.00 | 61 | 985.9 |
| 20260906045120 | 69 | 236 | 0.0 | 0.0 | 0.00 | 0.00 | 0.00 | 59 | 986.0 |
| 20260906044619 | 70 | 236 | 0.0 | 0.0 | 0.00 | 0.00 | 0.00 | 58 | 986.0 |
| 20260906044120 | 70 | 236 | 0.0 | 0.9 | 0.00 | 0.00 | 0.00 | 58 | 986.0 |
| 20260906043624 | 70 | 203 | 0.0 | 0.0 | 0.00 | 0.00 | 0.00 | 58 | 985.9 |
| 20260906043620 | 70 | 236 | 0.0 | 0.9 | 0.00 | 0.00 | 0.00 | 58 | 986.0 |
| 20260906042620 | 71 | 203 | 0.0 | 0.0 | 0.00 | 0.00 | 0.00 | 57 | 986.0 |
| 20260906042119 | 71 | 98 | 0.0 | 0.0 | 0.00 | 0.00 | 0.00 | 57 | 986.0 |
| 20260906041619 | 71 | 98 | 0.0 | 0.0 | 0.00 | 0.00 | 0.00 | 56 | 986.0 |
| 20260906041120 | 72 | 14 | 0.0 | 0.9 | 0.00 | 0.00 | 0.00 | 55 | 985.9 |
| 20260906040619 | 72 | 14 | 0.0 | 0.9 | 0.00 | 0.00 | 0.00 | 55 | 985.9 |
| 20260906040120 | 72 | 355 | 0.0 | 0.0 | 0.00 | 0.00 | 0.00 | 55 | 985.9 |
| 20260906035619 | 72 | 307 | 0.0 | 0.0 | 0.00 | 0.00 | 0.00 | 55 | 985.9 |
| 20260906035123 | 72 | 307 | 0.0 | 0.0 | 0.00 | 0.00 | 0.00 | 54 | 985.9 |
| 20260906035119 | 72 | 307 | 0.0 | 0.0 | 0.00 | 0.00 | 0.00 | 53 | 985.9 |
| 20260906034118 | 72 | 307 | 0.0 | 0.0 | 0.00 | 0.00 | 0.00 | 53 | 985.9 |
| 20260906033618 | 72 | 133 | 0.0 | 0.0 | 0.00 | 0.00 | 0.00 | 53 | 985.9 |
| 20260906033117 | 72 | 9 | 0.0 | 0.9 | 0.00 | 0.00 | 0.00 | 52 | 985.9 |
| 20260906032617 | 72 | 211 | 0.9 | 4.3 | 0.00 | 0.00 | 0.00 | 50 | 985.8 |
| 20260906032117 | 72 | 168 | 1.7 | 5.2 | 0.00 | 0.00 | 0.00 | 49 | 985.8 |
| 20260906031617 | 72 | 186 | 1.7 | 6.1 | 0.00 | 0.00 | 0.00 | 48 | 985.6 |
| 20260906031117 | 72 | 196 | 2.6 | 9.6 | 0.00 | 0.00 | 0.00 | 46 | 985.4 |
| 20260906030618 | 71 | 166 | 2.6 | 9.6 | 0.00 | 0.00 | 0.00 | 51 | 985.4 |
| 20260906030122 | 69 | 180 | 0.0 | 5.2 | 0.00 | 0.00 | 0.00 | 44 | 985.2 |
| 20260906030118 | 69 | 159 | 0.9 | 7.8 | 0.00 | 0.00 | 0.00 | 47 | 985.2 |
| 20260906025723 | 69 | 172 | 0.0 | 0.0 | 0.00 | 0.00 | 0.00 | 43 | 984.6 |
| 20260906025116 | 69 | 129 | 0.0 | 0.0 | 0.00 | 0.00 | 0.00 | 43 | 984.6 |
| 20260906024121 | 69 | 169 | 0.0 | 0.0 | 0.00 | 0.00 | 0.00 | 42 | 984.6 |
| 20260906024117 | 70 | 139 | 0.0 | 0.0 | 0.00 | 0.00 | 0.00 | 41 | 984.5 |
| 20260906023114 | 71 | 133 | 0.0 | 0.9 | 0.00 | 0.00 | 0.00 | 41 | 984.5 |
| 20260906022613 | 71 | 133 | 0.0 | 0.9 | 0.00 | 0.00 | 0.00 | 39 | 984.5 |
| 20260906022113 | 72 | 133 | 0.0 | 0.0 | 0.00 | 0.00 | 0.00 | 39 | 984.6 |
| 20260906021614 | 72 | 133 | 0.0 | 0.0 | 0.00 | 0.00 | 0.00 | 38 | 984.6 |
| 20260906021113 | 73 | 133 | 0.0 | 0.0 | 0.00 | 0.00 | 0.00 | 37 | 984.5 |
| 20260906020613 | 74 | 133 | 0.0 | 0.0 | 0.00 | 0.00 | 0.00 | 36 | 984.4 |
| 20260906020115 | 74 | 133 | 0.0 | 0.0 | 0.00 | 0.00 | 0.00 | 35 | 984.3 |
| 20260906020111 | 75 | 133 | 0.0 | 0.0 | 0.00 | 0.00 | 0.00 | 34 | 984.3 |
| 20260906015718 | 76 | 133 | 0.0 | 0.0 | 0.00 | 0.00 | 0.00 | 33 | 984.3 |
| 20260906014611 | 77 | 148 | 0.0 | 0.0 | 0.00 | 0.00 | 0.00 | 33 | 984.1 |
| 20260906014110 | 77 | 218 | 0.0 | 0.9 | 0.00 | 0.00 | 0.00 | 32 | 984.1 |
| 20260906013611 | 78 | 218 | 0.0 | 0.9 | 0.00 | 0.00 | 0.00 | 31 | 984.1 |
| 20260906013109 | 78 | 199 | 0.0 | 0.0 | 0.00 | 0.00 | 0.00 | 31 | 984.0 |
| 20260906012609 | 79 | 193 | 0.0 | 0.0 | 0.00 | 0.00 | 0.00 | 30 | 984.1 |
| 20260906012110 | 79 | 193 | 0.0 | 1.7 | 0.00 | 0.00 | 0.00 | 30 | 984.0 |
| 20260906011610 | 80 | 202 | 0.0 | 1.7 | 0.00 | 0.00 | 0.00 | 29 | 984.1 |
| 20260906011109 | 81 | 179 | 0.0 | 1.7 | 0.00 | 0.00 | 0.00 | 28 | 984.1 |
| 20260906010609 | 81 | 163 | 0.9 | 3.5 | 0.00 | 0.00 | 0.00 | 28 | 984.1 |
| 20260906010110 | 82 | 155 | 0.9 | 3.5 | 0.00 | 0.00 | 0.00 | 27 | 984.1 |
| 20260906005608 | 82 | 216 | 0.9 | 3.5 | 0.00 | 0.00 | 0.00 | 27 | 984.4 |
| 20260906005111 | 83 | 188 | 0.9 | 3.5 | 0.00 | 0.00 | 0.00 | 26 | 984.4 |
| 20260906005107 | 83 | 192 | 0.0 | 3.5 | 0.00 | 0.00 | 0.00 | 27 | 984.3 |
| 20260906004106 | 84 | 194 | 0.9 | 4.3 | 0.00 | 0.00 | 0.00 | 26 | 984.4 |
| 20260906003612 | 84 | 200 | 0.9 | 3.5 | 0.00 | 0.00 | 0.00 | 26 | 984.4 |
| 20260906003607 | 85 | 205 | 0.0 | 4.3 | 0.00 | 0.00 | 0.00 | 26 | 984.4 |
| 20260906003212 | 85 | 197 | 0.9 | 4.3 | 0.00 | 0.00 | 0.00 | 27 | 984.3 |
| 20260906002607 | 85 | 217 | 0.9 | 4.3 | 0.00 | 0.00 | 0.00 | 26 | 984.3 |
| 20260906001608 | 84 | 157 | 1.7 | 6.1 | 0.00 | 0.00 | 0.00 | 27 | 984.3 |
| 20260906001108 | 84 | 149 | 2.6 | 6.1 | 0.00 | 0.00 | 0.00 | 26 | 984.3 |
| 20260906000606 | 85 | 163 | 2.6 | 6.1 | 0.00 | 0.00 | 0.00 | 27 | 984.4 |
| 20260906000107 | 85 | 189 | 2.6 | 5.2 | 0.00 | 0.00 | 0.00 | 26 | 984.3 |
| 20260905235607 | 86 | 162 | 2.6 | 6.1 | 0.00 | 0.00 | 0.00 | 26 | 984.3 |
| 20260905235107 | 86 | 150 | 1.7 | 6.1 | 0.00 | 0.00 | 0.00 | 26 | 984.0 |
| 20260905234607 | 85 | 191 | 0.9 | 5.2 | 0.00 | 0.00 | 0.00 | 27 | 984.0 |
| 20260905234107 | 83 | 207 | 0.0 | 1.7 | 0.00 | 0.00 | 0.00 | 29 | 984.1 |
| 20260905233607 | 82 | 187 | 0.0 | 2.6 | 0.00 | 0.00 | 0.00 | 29 | 984.1 |
| 20260905233107 | 82 | 179 | 0.9 | 3.5 | 0.00 | 0.00 | 0.00 | 28 | 984.1 |
| 20260905232608 | 82 | 159 | 1.7 | 5.2 | 0.00 | 0.00 | 0.00 | 28 | 984.0 |
| 20260905232109 | 83 | 158 | 2.6 | 7.0 | 0.00 | 0.00 | 0.00 | 28 | 984.1 |
| 20260905231608 | 83 | 184 | 3.5 | 7.0 | 0.00 | 0.00 | 0.00 | 28 | 984.0 |
| 20260905231107 | 83 | 207 | 2.6 | 7.0 | 0.00 | 0.00 | 0.00 | 28 | 984.0 |
| 20260905230606 | 84 | 173 | 0.9 | 7.0 | 0.00 | 0.00 | 0.00 | 27 | 984.0 |
| 20260905230106 | 85 | 78 | 0.9 | 7.0 | 0.00 | 0.00 | 0.00 | 26 | 984.0 |
| 20260905225605 | 85 | 75 | 0.9 | 7.0 | 0.00 | 0.00 | 0.00 | 25 | 983.9 |
| 20260905225105 | 86 | 260 | 0.0 | 1.7 | 0.00 | 0.00 | 0.00 | 25 | 983.9 |
| 20260905224605 | 87 | 150 | 0.0 | 1.7 | 0.00 | 0.00 | 0.00 | 25 | 983.9 |
| 20260905224104 | 87 | 280 | 0.0 | 1.7 | 0.00 | 0.00 | 0.00 | 25 | 984.0 |
| 20260905223605 | 87 | 120 | 0.0 | 3.5 | 0.00 | 0.00 | 0.00 | 25 | 984.1 |
| 20260905223102 | 87 | 120 | 0.0 | 3.5 | 0.00 | 0.00 | 0.00 | 25 | 984.1 |
| 20260905222602 | 87 | 220 | 0.0 | 2.6 | 0.00 | 0.00 | 0.00 | 24 | 984.1 |
| 20260905222103 | 87 | 143 | 0.0 | 0.9 | 0.00 | 0.00 | 0.00 | 25 | 984.0 |
| 20260905221605 | 88 | 252 | 0.0 | 0.9 | 0.00 | 0.00 | 0.00 | 24 | 984.1 |
| 20260905221601 | 87 | 182 | 0.0 | 0.9 | 0.00 | 0.00 | 0.00 | 23 | 984.1 |
| 20260905220600 | 88 | 0 | 0.0 | 2.6 | 0.00 | 0.00 | 0.00 | 23 | 984.1 |
| 20260905220058 | 87 | 348 | 0.0 | 2.6 | 0.00 | 0.00 | 0.00 | 24 | 984.1 |
| 20260905215603 | 88 | 291 | 0.0 | 1.7 | 0.00 | 0.00 | 0.00 | 23 | 984.3 |
| 20260905215559 | 87 | 319 | 0.0 | 1.7 | 0.00 | 0.00 | 0.00 | 23 | 984.1 |
| 20260905214559 | 89 | 155 | 0.0 | 1.7 | 0.00 | 0.00 | 0.00 | 23 | 984.3 |
| 20260905214058 | 89 | 271 | 0.0 | 1.7 | 0.00 | 0.00 | 0.00 | 22 | 984.4 |
| 20260905213556 | 90 | 201 | 0.0 | 1.7 | 0.00 | 0.00 | 0.00 | 23 | 984.4 |
| 20260905213057 | 90 | 263 | 0.9 | 3.5 | 0.00 | 0.00 | 0.00 | 22 | 984.3 |
| 20260905212557 | 90 | 320 | 0.9 | 3.5 | 0.00 | 0.00 | 0.00 | 21 | 984.3 |
| 20260905212057 | 90 | 185 | 0.9 | 7.8 | 0.00 | 0.00 | 0.00 | 23 | 984.3 |
| 20260905211600 | 91 | 13 | 0.9 | 2.6 | 0.00 | 0.00 | 0.00 | 21 | 984.4 |
| 20260905211556 | 90 | 339 | 0.9 | 7.8 | 0.00 | 0.00 | 0.00 | 21 | 984.4 |
| 20260905210557 | 92 | 300 | 0.0 | 2.6 | 0.00 | 0.00 | 0.00 | 22 | 984.5 |
| 20260905210100 | 91 | 212 | 0.0 | 8.7 | 0.00 | 0.00 | 0.00 | 22 | 984.6 |
| 20260905210056 | 92 | 139 | 0.0 | 1.7 | 0.00 | 0.00 | 0.00 | 21 | 984.5 |
| 20260905205702 | 89 | 170 | 0.0 | 8.7 | 0.00 | 0.00 | 0.00 | 23 | 984.6 |
| 20260905204600 | 89 | 212 | 0.0 | 3.5 | 0.00 | 0.00 | 0.00 | 23 | 984.7 |
| 20260905204556 | 89 | 353 | 0.0 | 3.5 | 0.00 | 0.00 | 0.00 | 23 | 984.7 |
| 20260905203557 | 88 | 8 | 0.0 | 2.6 | 0.00 | 0.00 | 0.00 | 24 | 985.0 |
| 20260905203057 | 88 | 293 | 0.0 | 2.6 | 0.00 | 0.00 | 0.00 | 23 | 984.8 |
| 20260905202600 | 87 | 299 | 0.0 | 3.5 | 0.00 | 0.00 | 0.00 | 23 | 985.1 |
| 20260905202556 | 87 | 290 | 0.0 | 3.5 | 0.00 | 0.00 | 0.00 | 24 | 985.0 |
| 20260905201557 | 87 | 210 | 0.0 | 0.9 | 0.00 | 0.00 | 0.00 | 23 | 985.0 |
| 20260905201101 | 88 | 268 | 0.0 | 1.7 | 0.00 | 0.00 | 0.00 | 24 | 985.0 |
| 20260905201057 | 88 | 267 | 0.0 | 1.7 | 0.00 | 0.00 | 0.00 | 24 | 985.1 |
| 20260905200057 | 86 | 173 | 0.0 | 1.7 | 0.00 | 0.00 | 0.00 | 25 | 985.0 |
| 20260905195556 | 86 | 129 | 0.0 | 2.6 | 0.00 | 0.00 | 0.00 | 24 | 985.1 |
| 20260905195101 | 87 | 292 | 0.9 | 3.5 | 0.00 | 0.00 | 0.00 | 23 | 985.2 |
| 20260905195057 | 86 | 143 | 0.0 | 3.5 | 0.00 | 0.00 | 0.00 | 24 | 985.2 |
| 20260905194057 | 89 | 335 | 0.9 | 3.5 | 0.00 | 0.00 | 0.00 | 22 | 985.3 |
| 20260905193556 | 90 | 278 | 0.0 | 3.5 | 0.00 | 0.00 | 0.00 | 23 | 985.2 |
| 20260905193056 | 89 | 264 | 0.9 | 7.0 | 0.00 | 0.00 | 0.00 | 24 | 985.2 |
| 20260905192557 | 88 | 59 | 1.7 | 8.7 | 0.00 | 0.00 | 0.00 | 24 | 985.3 |
| 20260905192101 | 89 | 96 | 0.9 | 9.6 | 0.00 | 0.00 | 0.00 | 23 | 985.3 |
| 20260905192057 | 88 | 19 | 2.6 | 9.6 | 0.00 | 0.00 | 0.00 | 23 | 985.3 |
| 20260905191056 | 89 | 283 | 0.9 | 4.3 | 0.00 | 0.00 | 0.00 | 23 | 985.3 |
| 20260905190601 | 89 | 290 | 0.0 | 3.5 | 0.00 | 0.00 | 0.00 | 25 | 985.4 |
| 20260905190557 | 89 | 266 | 0.9 | 4.3 | 0.00 | 0.00 | 0.00 | 23 | 985.4 |
| 20260905185556 | 89 | 285 | 0.0 | 3.5 | 0.00 | 0.00 | 0.00 | 24 | 985.4 |
| 20260905185056 | 89 | 117 | 0.0 | 2.6 | 0.00 | 0.00 | 0.00 | 24 | 985.4 |
| 20260905184558 | 89 | 183 | 0.9 | 4.3 | 0.00 | 0.00 | 0.00 | 24 | 985.6 |
| 20260905184057 | 88 | 141 | 0.9 | 4.3 | 0.00 | 0.00 | 0.00 | 24 | 985.6 |
| 20260905183556 | 88 | 287 | 0.0 | 5.2 | 0.00 | 0.00 | 0.00 | 25 | 985.6 |
| 20260905183057 | 88 | 300 | 0.0 | 5.2 | 0.00 | 0.00 | 0.00 | 26 | 985.7 |
| 20260905182557 | 88 | 248 | 0.0 | 3.5 | 0.00 | 0.00 | 0.00 | 25 | 985.8 |
| 20260905182054 | 88 | 141 | 0.0 | 1.7 | 0.00 | 0.00 | 0.00 | 25 | 985.8 |
| 20260905181554 | 88 | 153 | 0.0 | 1.7 | 0.00 | 0.00 | 0.00 | 25 | 985.8 |
| 20260905181052 | 87 | 278 | 0.0 | 2.6 | 0.00 | 0.00 | 0.00 | 25 | 985.9 |
| 20260905180553 | 87 | 177 | 0.9 | 5.2 | 0.00 | 0.00 | 0.00 | 26 | 986.0 |
| 20260905180052 | 87 | 322 | 0.9 | 5.2 | 0.00 | 0.00 | 0.00 | 26 | 986.0 |
| 20260905175552 | 87 | 267 | 0.0 | 2.6 | 0.00 | 0.00 | 0.00 | 25 | 985.9 |
| 20260905175051 | 87 | 248 | 0.0 | 3.5 | 0.00 | 0.00 | 0.00 | 26 | 986.0 |
| 20260905174550 | 87 | 297 | 0.9 | 4.3 | 0.00 | 0.00 | 0.00 | 27 | 986.0 |
| 20260905174050 | 86 | 248 | 0.9 | 4.3 | 0.00 | 0.00 | 0.00 | 27 | 986.1 |
| 20260905173554 | 85 | 257 | 0.0 | 3.5 | 0.00 | 0.00 | 0.00 | 27 | 986.1 |
| 20260905173550 | 86 | 319 | 0.0 | 1.7 | 0.00 | 0.00 | 0.00 | 26 | 986.1 |
| 20260905173154 | 84 | 181 | 0.0 | 1.7 | 0.00 | 0.00 | 0.00 | 29 | 986.4 |
| 20260905172548 | 84 | 293 | 0.0 | 3.5 | 0.00 | 0.00 | 0.00 | 28 | 986.3 |
| 20260905171549 | 84 | 321 | 0.0 | 0.9 | 0.00 | 0.00 | 0.00 | 27 | 986.4 |
| 20260905171049 | 84 | 255 | 0.0 | 4.3 | 0.00 | 0.00 | 0.00 | 28 | 986.1 |
| 20260905170548 | 83 | 29 | 0.9 | 5.2 | 0.00 | 0.00 | 0.00 | 28 | 986.1 |
| 20260905170048 | 82 | 168 | 1.7 | 6.1 | 0.00 | 0.00 | 0.00 | 29 | 986.1 |
| 20260905165548 | 82 | 21 | 1.7 | 6.1 | 0.00 | 0.00 | 0.00 | 28 | 986.1 |
| 20260905165048 | 82 | 17 | 0.0 | 3.5 | 0.00 | 0.00 | 0.00 | 28 | 986.1 |
| 20260905164548 | 81 | 146 | 0.9 | 5.2 | 0.00 | 0.00 | 0.00 | 29 | 986.3 |
| 20260905164046 | 81 | 311 | 0.9 | 5.2 | 0.00 | 0.00 | 0.00 | 28 | 986.1 |
| 20260905163546 | 81 | 326 | 0.9 | 5.2 | 0.00 | 0.00 | 0.00 | 30 | 986.1 |
| 20260905163046 | 80 | 323 | 0.9 | 5.2 | 0.00 | 0.00 | 0.00 | 30 | 986.1 |
| 20260905162546 | 80 | 343 | 0.9 | 4.3 | 0.00 | 0.00 | 0.00 | 30 | 986.1 |
| 20260905162046 | 80 | 30 | 0.9 | 2.6 | 0.00 | 0.00 | 0.00 | 30 | 986.3 |
| 20260905161550 | 79 | 23 | 0.9 | 4.3 | 0.00 | 0.00 | 0.00 | 30 | 986.1 |
| 20260905161546 | 79 | 15 | 0.9 | 4.3 | 0.00 | 0.00 | 0.00 | 29 | 986.1 |
| 20260905160546 | 79 | 311 | 0.9 | 3.5 | 0.00 | 0.00 | 0.00 | 32 | 986.1 |
| 20260905160047 | 78 | 348 | 1.7 | 4.3 | 0.00 | 0.00 | 0.00 | 31 | 986.0 |
| 20260905155548 | 78 | 335 | 0.9 | 4.3 | 0.00 | 0.00 | 0.00 | 32 | 986.0 |
| 20260905155544 | 78 | 321 | 1.7 | 4.3 | 0.00 | 0.00 | 0.00 | 32 | 985.9 |
| 20260905154543 | 77 | 328 | 1.7 | 4.3 | 0.00 | 0.00 | 0.00 | 31 | 985.9 |
| 20260905154044 | 77 | 7 | 1.7 | 6.1 | 0.00 | 0.00 | 0.00 | 31 | 985.9 |
| 20260905153542 | 77 | 310 | 1.7 | 6.1 | 0.00 | 0.00 | 0.00 | 30 | 986.0 |
| 20260905153043 | 77 | 333 | 1.7 | 5.2 | 0.00 | 0.00 | 0.00 | 32 | 986.0 |
| 20260905152546 | 77 | 320 | 0.0 | 3.5 | 0.00 | 0.00 | 0.00 | 33 | 986.0 |
| 20260905152542 | 77 | 2 | 0.9 | 5.2 | 0.00 | 0.00 | 0.00 | 31 | 986.0 |
| 20260905151542 | 76 | 302 | 0.0 | 2.6 | 0.00 | 0.00 | 0.00 | 34 | 986.0 |
| 20260905151042 | 76 | 225 | 0.0 | 2.6 | 0.00 | 0.00 | 0.00 | 36 | 986.0 |
| 20260905150546 | 74 | 1 | 0.0 | 3.5 | 0.00 | 0.00 | 0.00 | 36 | 986.0 |
| 20260905150542 | 75 | 331 | 0.0 | 1.7 | 0.00 | 0.00 | 0.00 | 36 | 986.0 |
| 20260905145542 | 74 | 333 | 0.0 | 3.5 | 0.00 | 0.00 | 0.00 | 37 | 986.0 |
| 20260905145045 | 73 | 231 | 0.0 | 3.5 | 0.00 | 0.00 | 0.00 | 41 | 986.1 |
| 20260905145041 | 73 | 281 | 0.0 | 1.7 | 0.00 | 0.00 | 0.00 | 39 | 986.1 |
| 20260905144042 | 72 | 243 | 0.9 | 3.5 | 0.00 | 0.00 | 0.00 | 42 | 986.0 |
| 20260905143541 | 71 | 311 | 0.0 | 2.6 | 0.00 | 0.00 | 0.00 | 43 | 986.0 |
| 20260905143046 | 69 | 326 | 0.0 | 2.6 | 0.00 | 0.00 | 0.00 | 47 | 986.0 |
| 20260905143042 | 70 | 299 | 0.0 | 2.6 | 0.00 | 0.00 | 0.00 | 44 | 986.0 |
| 20260905142045 | 67 | 305 | 0.0 | 2.6 | 0.00 | 0.00 | 0.00 | 49 | 986.0 |
| 20260905142041 | 65 | 320 | 0.0 | 0.9 | 0.00 | 0.00 | 0.00 | 55 | 985.9 |
| 20260905141040 | 63 | 160 | 0.0 | 0.0 | 0.00 | 0.00 | 0.00 | 60 | 985.8 |
| 20260905140540 | 62 | 162 | 0.0 | 0.0 | 0.00 | 0.00 | 0.00 | 64 | 985.8 |
| 20260905140039 | 62 | 162 | 0.0 | 0.0 | 0.00 | 0.00 | 0.00 | 65 | 985.7 |
| 20260905135540 | 62 | 162 | 0.0 | 0.0 | 0.00 | 0.00 | 0.00 | 67 | 985.7 |
| 20260905135040 | 60 | 162 | 0.0 | 0.0 | 0.00 | 0.00 | 0.00 | 68 | 985.6 |
| 20260905134537 | 59 | 162 | 0.0 | 0.0 | 0.00 | 0.00 | 0.00 | 70 | 985.4 |
| 20260905134038 | 58 | 162 | 0.0 | 0.0 | 0.00 | 0.00 | 0.00 | 72 | 985.4 |
| 20260905133538 | 58 | 162 | 0.0 | 0.0 | 0.00 | 0.00 | 0.00 | 74 | 985.6 |
| 20260905133035 | 57 | 162 | 0.0 | 0.0 | 0.00 | 0.00 | 0.00 | 74 | 985.6 |
| 20260905132534 | 57 | 162 | 0.0 | 0.0 | 0.00 | 0.00 | 0.00 | 74 | 985.6 |
| 20260905132034 | 56 | 162 | 0.0 | 0.0 | 0.00 | 0.00 | 0.00 | 76 | 985.6 |
| 20260905131535 | 56 | 162 | 0.0 | 0.0 | 0.00 | 0.00 | 0.00 | 76 | 985.6 |
| 20260905131034 | 56 | 162 | 0.0 | 0.0 | 0.00 | 0.00 | 0.00 | 77 | 985.6 |
| 20260905130533 | 56 | 162 | 0.0 | 0.0 | 0.00 | 0.00 | 0.00 | 75 | 985.4 |
| 20260905130037 | 56 | 162 | 0.0 | 0.0 | 0.00 | 0.00 | 0.00 | 75 | 985.3 |
| 20260905130033 | 56 | 162 | 0.0 | 0.0 | 0.00 | 0.00 | 0.00 | 75 | 985.4 |
| 20260905125639 | 56 | 162 | 0.0 | 0.0 | 0.00 | 0.00 | 0.00 | 76 | 985.1 |
| 20260905125033 | 56 | 162 | 0.0 | 0.0 | 0.00 | 0.00 | 0.00 | 75 | 985.1 |
| 20260905124033 | 55 | 162 | 0.0 | 0.0 | 0.00 | 0.00 | 0.00 | 77 | 985.1 |
| 20260905123539 | 55 | 162 | 0.0 | 0.0 | 0.00 | 0.00 | 0.00 | 76 | 985.0 |
| 20260905123534 | 55 | 162 | 0.0 | 0.0 | 0.00 | 0.00 | 0.00 | 77 | 985.0 |
| 20260905122533 | 56 | 162 | 0.0 | 0.0 | 0.00 | 0.00 | 0.00 | 74 | 984.8 |
| 20260905122034 | 56 | 134 | 0.0 | 0.0 | 0.00 | 0.00 | 0.00 | 74 | 984.7 |